Wind_Speed
19 21 22 21 22 21 21 20 19 18 19 17 16 15 12 13 13 14 13 12 13 11 10 8 9 11 13 15 15 18 17 21 6 26 28 27 32 23 26 22 24 14 8 7 6
20 21 20 18 19 18 19 20 21 19 20 18 17 15 12 11 12 13 12 13 14 12 12 10 11 12 15 15 16 16 14 21 19 32 33 36 37 14 21 21 20 12 8 6 12
18 18 17 17 18 17 18 20 21 19 18 18 17 16 14 12 10 11 13 13 12 12 11 11 12 13 14 15 16 16 27 16 27 30 40 38 33 35 14 12 13 13 13 12 14
15 15 15 16 16 17 17 19 19 19 19 19 18 17 16 14 7 11 11 12 12 12 11 12 12 12 12 15 16 18 29 16 30 38 44 36 25 29 20 16 15 15 14 14 17
14 14 14 15 15 16 17 19 19 20 20 20 20 19 18 16 11 12 11 11 11 10 12 12 12 12 12 15 17 20 31 25 36 42 40 30 32 33 30 28 23 19 18 17 19
14 14 14 14 14 16 17 19 20 21 20 20 20 21 20 19 15 15 13 13 12 12 12 12 13 14 15 17 19 19 29 29 37 40 34 24 31 35 31 27 26 25 23 20 19
15 13 13 13 14 15 15 17 20 20 20 20 19 20 21 20 20 17 16 15 14 13 13 13 14 15 16 17 20 23 27 35 37 35 20 15 30 36 34 31 28 28 25 22 22
12 12 11 12 13 13 14 14 16 17 19 19 20 20 21 21 21 20 18 18 18 17 16 15 15 16 17 19 22 24 26 33 37 36 24 21 34 33 34 32 31 29 27 26 25
10 12 12 12 12 12 14 17 18 17 17 17 19 20 21 21 21 21 20 20 20 20 19 18 18 17 19 21 21 25 29 30 30 39 30 25 41 34 34 33 32 32 31 30 28
11 12 12 13 15 16 16 17 17 20 21 21 21 21 20 21 21 23 23 23 22 22 21 20 19 18 19 20 21 21 25 22 23 29 35 34 37 37 35 36 37 36 34 33 31
15 16 17 18 18 18 18 18 18 18 20 22 22 24 23 23 22 23 24 26 26 26 24 24 23 21 20 18 17 14 12 15 27 39 42 40 36 29 36 41 40 39 37 35 32
21 21 21 22 22 22 21 22 22 21 21 21 21 21 21 22 23 25 26 27 27 27 26 26 23 21 20 20 21 26 21 26 40 40 45 48 38 39 36 40 47 45 43 41 38
20 22 22 23 24 24 23 22 22 23 24 26 25 23 23 24 25 24 25 26 26 27 27 27 22 14 22 21 22 24 28 27 36 39 41 46 45 34 33 37 37 44 47 47 45
10 11 13 16 19 21 22 22 22 23 23 29 26 24 24 24 24 24 23 24 25 25 25 25 21 25 19 24 27 28 30 31 26 43 42 40 39 40 35 37 38 38 39 43 46
13 13 14 15 15 15 15 17 18 19 19 26 32 20 23 23 27 24 25 23 23 22 25 22 21 23 26 31 27 26 23 20 25 39 45 38 37 34 40 37 36 33 31 32 37
17 18 18 19 19 18 17 17 17 14 8 17 31 24 23 20 23 23 24 25 22 23 26 25 24 20 26 27 26 17 23 24 27 29 40 30 35 31 42 34 32 32 30 30 29
15 16 17 18 18 19 19 19 17 12 14 14 17 27 22 22 19 22 25 24 23 24 24 22 24 31 28 25 20 31 29 22 27 29 36 26 24 32 40 42 39 34 30 30 30
14 14 16 17 18 17 16 16 15 11 14 28 30 25 24 20 21 19 24 23 23 24 22 16 16 25 24 28 26 27 22 27 27 29 28 18 26 45 50 49 41 35 27 30 32
14 14 15 15 15 14 15 15 11 18 32 34 27 21 20 20 20 21 23 24 19 22 26 23 19 30 19 26 26 28 26 23 30 32 34 32 36 39 47 47 47 40 36 33 30
16 17 18 18 17 17 17 14 18 29 28 24 24 22 14 16 28 26 25 22 23 23 24 26 28 30 26 34 38 34 30 27 26 34 37 37 40 41 35 43 47 44 42 33 33
19 18 17 17 17 17 17 16 17 35 20 24 25 27 30 30 18 25 38 42 36 36 39 38 33 29 21 21 21 21 27 30 38 33 39 46 42 35 45 40 41 44 37 38 39
16 16 15 14 14 13 14 23 25 29 28 25 26 28 31 31 36 38 35 28 35 40 40 42 41 40 36 26 31 32 28 27 29 34 41 38 44 41 43 48 47 43 44 43 37
13 12 12 13 14 12 12 22 22 22 26 23 25 30 31 32 33 34 37 44 45 38 41 39 35 30 33 37 37 43 38 37 33 41 46 42 43 49 53 42 41 41 38 40 44
13 15 12 13 13 15 17 21 25 23 24 24 26 29 30 33 32 35 38 47 51 51 50 48 43 42 41 37 37 44 45 44 49 36 38 39 45 51 58 53 52 56 54 48 53
14 15 18 20 24 21 24 27 26 29 32 26 27 33 32 31 31 35 43 43 50 49 46 48 48 47 47 47 51 55 51 44 35 34 40 41 43 47 47 51 50 51 50 50 49
19 20 21 23 25 28 33 32 32 35 38 35 39 36 38 36 39 36 39 41 41 43 45 43 44 49 50 51 59 57 55 55 54 54 34 52 47 56 55 52 52 54 58 59 59
20 22 23 31 26 30 34 36 39 41 39 44 44 42 41 45 44 38 40 43 45 45 45 47 46 44 45 47 47 57 55 52 51 54 49 54 56 56 54 55 55 55 56 58 58
Wind_Direction
256 250 248 246 245 242 241 239 243 252 262 264 262 272 272 264 247 244 241 236 239 239 241 228 208 203 203 206 207 197 168 119 124 254 258 257 263 255 272 259 258 301 317 307 331
255 253 250 241 234 239 239 244 248 249 257 261 261 269 273 267 252 244 239 239 242 240 238 230 216 205 203 207 204 203 159 109 252 233 240 248 254 222 262 246 271 298 296 308 319
256 253 247 236 236 237 241 243 246 255 263 261 257 264 273 271 261 249 240 240 243 244 239 234 224 209 204 211 207 192 150 97 265 253 245 243 242 250 159 278 264 272 293 298 303
254 251 246 244 241 244 250 252 255 261 268 264 257 260 267 271 271 264 248 240 237 238 234 229 226 220 207 208 206 193 166 194 233 245 244 246 244 246 236 270 260 267 281 281 295
253 253 249 245 248 253 257 260 264 266 267 264 259 257 263 267 274 264 254 245 239 232 234 233 232 225 212 208 206 202 178 228 220 235 243 254 251 245 241 252 257 260 266 273 290
252 255 253 252 253 256 258 261 264 265 264 262 260 258 263 266 268 266 260 255 249 241 234 232 234 231 220 214 211 212 197 241 241 244 257 271 238 241 250 251 257 261 258 270 286
253 252 259 259 258 259 259 259 260 261 260 259 261 260 260 264 264 266 264 261 258 252 245 238 232 231 228 226 220 213 211 224 248 265 268 296 251 240 247 254 253 256 256 269 276
251 254 258 263 262 261 262 261 261 263 261 261 260 259 261 260 264 263 261 257 256 253 250 248 245 240 239 237 231 227 223 222 253 267 268 258 255 247 245 249 253 252 256 270 269
256 258 259 262 264 267 268 266 263 265 268 267 266 264 263 261 261 262 261 257 255 254 252 250 248 245 243 245 240 237 238 239 243 262 268 260 259 251 253 254 250 250 256 264 271
263 263 267 268 272 275 277 278 277 268 266 269 270 268 267 268 265 260 261 259 256 255 252 250 246 245 247 245 251 253 245 248 259 282 271 274 261 265 259 255 253 254 256 257 260
267 271 272 272 271 273 274 275 279 279 273 269 269 268 266 269 268 266 262 260 257 256 254 251 249 250 247 240 231 215 260 275 245 252 269 266 277 285 266 257 255 256 258 261 257
272 271 270 269 268 269 271 277 279 277 278 276 274 272 271 268 269 266 264 261 257 254 252 252 252 249 244 239 232 193 211 237 240 244 253 265 280 275 270 265 259 257 255 256 259
272 271 269 269 269 269 270 273 275 278 277 273 271 271 271 270 269 268 267 263 259 254 252 250 252 246 238 234 231 237 219 230 252 249 252 264 271 273 266 265 265 259 257 256 259
274 275 276 273 271 270 271 273 275 277 279 273 270 269 271 271 272 269 263 260 259 258 254 252 244 210 242 235 228 237 237 234 237 258 257 261 268 266 264 265 266 265 261 262 264
262 263 263 263 267 266 271 270 270 276 282 282 277 274 270 269 268 265 267 260 259 256 251 252 244 244 240 246 249 248 250 239 244 262 263 265 261 273 266 264 267 271 272 269 267
276 273 270 270 271 271 270 267 264 263 276 289 278 275 272 270 267 264 262 265 258 252 251 250 235 238 248 254 243 239 253 226 241 247 263 261 261 269 276 280 273 270 274 272 270
277 275 274 274 275 275 274 273 268 259 253 266 273 284 262 263 257 256 266 263 260 259 256 258 251 236 253 241 234 236 233 237 239 245 257 271 254 277 273 275 275 282 283 282 275
288 285 281 276 273 272 270 269 268 212 240 247 252 267 285 275 260 239 259 263 257 252 243 252 260 288 277 266 234 244 264 240 241 247 269 285 253 242 250 259 276 274 275 281 281
296 294 285 279 277 275 271 270 261 230 234 253 270 271 278 269 260 260 263 268 250 270 261 236 231 254 231 246 256 227 225 257 243 235 247 261 263 250 261 255 264 271 277 275 277
297 294 288 285 283 276 270 268 261 255 266 265 262 251 238 254 241 217 243 260 273 239 247 248 226 230 245 227 234 255 256 232 244 245 249 249 274 273 265 256 262 261 261 260 264
295 291 288 285 281 276 270 247 233 264 283 263 259 254 240 218 283 252 221 225 215 214 223 233 243 228 248 251 249 260 266 249 236 241 248 236 241 251 257 258 262 266 264 269 265
306 307 301 296 291 284 277 257 269 269 279 267 264 260 254 250 249 246 255 256 254 224 229 226 227 235 228 261 256 252 236 234 236 249 246 263 272 270 267 264 269 271 271 269 267
323 327 319 306 298 298 265 285 281 276 276 274 268 264 263 264 258 252 252 259 266 264 262 272 243 240 253 251 264 258 263 238 231 244 255 247 258 260 260 269 283 284 264 276 281
335 335 330 321 311 303 293 287 291 288 276 278 273 270 265 261 259 256 251 255 255 260 265 267 265 263 263 255 247 247 253 258 237 243 247 253 256 257 266 274 276 279 282 280 278
330 324 317 313 305 298 292 287 284 279 287 279 271 270 269 268 260 255 255 250 257 256 257 259 260 260 259 258 258 259 264 265 268 256 245 252 253 256 261 266 269 273 275 276 278
325 322 316 312 303 299 293 289 287 278 280 274 275 268 272 267 261 258 262 263 263 268 265 259 260 261 260 259 263 262 260 258 260 274 261 265 267 270 266 265 267 268 271 274 277
335 330 323 314 312 307 298 292 286 282 276 275 270 271 267 266 270 267 262 262 264 264 266 269 265 260 262 264 262 268 269 267 265 270 271 269 270 272 273 272 274 274 274 275 276
Height
5858 5860 5861 5862 5863 5865 5867 5869 5871 5873 5874 5876 5877 5877 5877 5877 5878 5879 5880 5882 5883 5884 5886 5888 5890 5891 5893 5895 5897 5898 5902 5906 5915 5910 5907 5906 5894 5898 5895 5899 5896 5897 5902 5906 5906
5856 5857 5858 5859 5861 5862 5864 5867 5869 5871 5872 5873 5874 5875 5875 5875 5876 5877 5879 5879 5880 5882 5884 5886 5887 5889 5891 5893 5895 5897 5903 5905 5906 5901 5901 5903 5893 5899 5886 5894 5892 5896 5900 5903 5902
5853 5854 5855 5857 5858 5860 5862 5864 5866 5868 5869 5870 5871 5872 5872 5873 5875 5875 5876 5877 5878 5880 5881 5883 5885 5887 5888 5890 5893 5896 5900 5907 5897 5896 5894 5897 5898 5896 5863 5895 5889 5894 5898 5900 5899
5851 5852 5853 5854 5855 5858 5860 5862 5863 5865 5866 5867 5868 5869 5870 5871 5875 5872 5874 5875 5877 5878 5879 5881 5883 5884 5886 5888 5890 5894 5897 5898 5895 5887 5885 5893 5898 5893 5892 5891 5893 5896 5898 5900 5900
5849 5850 5851 5852 5853 5855 5857 5858 5860 5861 5863 5864 5865 5867 5868 5870 5871 5871 5872 5873 5875 5876 5877 5879 5880 5882 5883 5885 5887 5890 5894 5890 5887 5882 5885 5889 5893 5894 5892 5892 5895 5897 5898 5899 5899
5847 5848 5849 5849 5851 5852 5854 5855 5856 5858 5859 5860 5861 5863 5865 5867 5869 5869 5871 5872 5873 5874 5875 5877 5878 5880 5881 5882 5884 5887 5891 5886 5882 5882 5884 5887 5889 5888 5889 5891 5893 5895 5896 5897 5898
5845 5845 5847 5847 5848 5849 5850 5852 5853 5854 5855 5857 5858 5859 5861 5864 5864 5867 5868 5870 5870 5872 5873 5874 5875 5877 5878 5879 5881 5882 5885 5879 5878 5875 5882 5886 5883 5883 5886 5888 5890 5892 5893 5895 5896
5842 5844 5845 5845 5847 5847 5848 5849 5850 5851 5852 5853 5854 5856 5858 5860 5862 5863 5865 5866 5867 5868 5869 5871 5872 5873 5874 5875 5877 5878 5880 5879 5871 5871 5878 5882 5873 5879 5882 5884 5887 5889 5891 5892 5893
5840 5841 5842 5843 5844 5845 5845 5846 5847 5848 5849 5850 5851 5853 5855 5856 5858 5859 5860 5862 5863 5864 5865 5867 5868 5869 5870 5871 5873 5874 5874 5874 5874 5867 5873 5876 5863 5874 5878 5881 5884 5886 5888 5889 5889
5839 5839 5839 5840 5841 5841 5842 5842 5843 5844 5845 5846 5847 5850 5851 5852 5854 5854 5856 5857 5858 5859 5861 5862 5863 5865 5866 5866 5869 5871 5872 5872 5870 5868 5864 5864 5862 5868 5874 5877 5878 5881 5883 5885 5886
5836 5836 5837 5837 5837 5838 5839 5839 5841 5842 5841 5842 5843 5844 5846 5847 5849 5850 5850 5852 5853 5854 5856 5857 5859 5860 5861 5863 5865 5871 5873 5873 5868 5865 5863 5862 5859 5865 5869 5871 5872 5874 5876 5878 5880
5832 5832 5833 5833 5833 5834 5834 5835 5836 5837 5837 5837 5838 5839 5840 5841 5843 5844 5845 5847 5847 5848 5849 5851 5853 5855 5857 5859 5860 5863 5870 5871 5859 5861 5860 5855 5856 5858 5860 5861 5863 5866 5868 5871 5873
5827 5828 5828 5828 5828 5829 5830 5831 5831 5831 5832 5831 5832 5834 5835 5837 5837 5839 5840 5840 5841 5842 5843 5844 5848 5849 5851 5853 5856 5859 5860 5864 5858 5857 5858 5852 5850 5854 5854 5852 5853 5855 5859 5862 5864
5824 5824 5824 5823 5825 5825 5826 5826 5826 5826 5826 5824 5826 5829 5830 5830 5832 5832 5834 5834 5835 5836 5837 5838 5842 5844 5846 5847 5850 5850 5852 5854 5858 5846 5850 5848 5846 5841 5845 5844 5845 5846 5849 5853 5855
5820 5820 5820 5819 5819 5820 5821 5820 5821 5822 5822 5818 5817 5824 5823 5826 5824 5827 5826 5827 5829 5831 5831 5835 5836 5837 5839 5840 5841 5842 5845 5848 5849 5841 5840 5838 5839 5837 5835 5838 5839 5841 5842 5843 5845
5817 5817 5816 5815 5815 5816 5816 5816 5817 5820 5821 5817 5812 5817 5818 5820 5820 5820 5822 5822 5824 5824 5824 5827 5830 5834 5832 5834 5834 5839 5840 5840 5842 5841 5830 5835 5831 5834 5826 5831 5833 5834 5835 5835 5836
5813 5812 5812 5811 5812 5811 5812 5813 5815 5817 5818 5820 5813 5808 5812 5813 5815 5814 5815 5816 5817 5818 5819 5821 5822 5824 5824 5827 5829 5829 5831 5833 5835 5832 5827 5831 5830 5828 5819 5821 5825 5828 5829 5828 5828
5809 5809 5808 5808 5807 5807 5808 5809 5810 5813 5817 5807 5808 5810 5810 5810 5809 5811 5809 5809 5811 5812 5814 5818 5820 5819 5820 5818 5822 5822 5823 5824 5827 5828 5829 5828 5824 5814 5812 5810 5816 5821 5821 5821 5820
5806 5806 5805 5804 5804 5804 5804 5805 5805 5804 5799 5801 5805 5805 5806 5806 5808 5809 5807 5806 5809 5808 5807 5809 5813 5808 5813 5813 5812 5816 5816 5821 5819 5820 5821 5821 5813 5814 5809 5807 5808 5811 5812 5813 5813
5803 5802 5801 5800 5799 5799 5800 5801 5800 5794 5797 5798 5798 5799 5802 5801 5797 5801 5805 5803 5803 5806 5803 5801 5802 5803 5804 5805 5803 5808 5812 5812 5812 5811 5811 5813 5805 5798 5800 5799 5798 5799 5800 5802 5802
5800 5799 5797 5796 5795 5795 5795 5795 5795 5785 5792 5791 5791 5791 5790 5793 5790 5788 5788 5782 5782 5788 5784 5791 5794 5798 5794 5794 5799 5801 5800 5802 5803 5801 5799 5795 5795 5790 5791 5795 5791 5790 5791 5793 5792
5796 5795 5793 5792 5792 5790 5790 5787 5787 5785 5783 5784 5784 5784 5783 5784 5784 5784 5775 5775 5776 5772 5776 5774 5778 5783 5789 5789 5789 5791 5794 5793 5791 5793 5793 5792 5779 5776 5782 5783 5782 5781 5781 5782 5781
5794 5792 5791 5789 5788 5786 5785 5783 5780 5779 5776 5777 5776 5775 5775 5775 5777 5778 5773 5768 5769 5770 5774 5773 5773 5776 5781 5786 5784 5780 5779 5777 5778 5781 5779 5782 5773 5770 5770 5770 5769 5771 5771 5770 5771
5793 5790 5789 5787 5785 5783 5780 5779 5775 5772 5770 5769 5768 5766 5765 5765 5767 5767 5768 5763 5762 5763 5762 5761 5765 5768 5771 5774 5765 5767 5767 5770 5765 5766 5767 5768 5762 5762 5758 5758 5760 5760 5758 5759 5761
5791 5789 5786 5782 5779 5778 5775 5771 5769 5765 5762 5761 5761 5756 5756 5756 5756 5755 5751 5754 5750 5753 5755 5756 5757 5757 5759 5762 5760 5756 5757 5758 5758 5761 5755 5750 5749 5752 5752 5753 5754 5753 5750 5749 5749
5789 5785 5783 5779 5775 5771 5765 5763 5760 5756 5753 5751 5748 5748 5744 5745 5742 5745 5743 5743 5742 5740 5740 5744 5746 5744 5747 5749 5744 5745 5748 5749 5750 5746 5749 5736 5740 5744 5746 5745 5746 5744 5740 5738 5738
5785 5782 5777 5770 5767 5762 5756 5752 5748 5743 5742 5736 5735 5734 5733 5729 5730 5733 5733 5731 5730 5731 5730 5729 5731 5733 5735 5734 5733 5730 5733 5736 5736 5733 5737 5727 5730 5732 5732 5732 5731 5731 5728 5727 5725